GIA6513 WAHI-OEJN

Flight info

Callsign GIA6513
Flight time N/A
Altitude 34000
Route CLP W17 BND W11 RIMTI M766 OBMAT/N0479F360 M766 KAT P570 TVM UL425 ENPOL/N0469F380 UL425 DONSA UM551 ANGAL M551 KIVEL B549 GOGRI/N0465F400 B549 THAMD P323 WDR Z331 VEMEM
Aircraft A333/H-SDE1E2E3FGHIJ4J5M1P2RWXYZ/LB1D1

Departure

Time 2026-05-09 16:01
Airport Yogyakarta International Airport (WAHI)

Arrival

Time N/A
Airport King Abdulaziz International Airport (OEJN)
Time Latitude Longitude Altitude Speed Heading
2026-05-09 15:17 -7.90125 110.05932 52 ft 0 kts 20°
2026-05-09 15:27 -7.90126 110.05932 51 ft 1 kts 20°
2026-05-09 15:28 -7.90140 110.05926 51 ft 2 kts 22°
2026-05-09 15:28 -7.90154 110.05920 51 ft 2 kts 21°
2026-05-09 15:28 -7.90168 110.05915 51 ft 2 kts 21°
2026-05-09 15:28 -7.90182 110.05909 51 ft 2 kts 21°
2026-05-09 15:29 -7.90196 110.05904 51 ft 2 kts 20°
2026-05-09 15:29 -7.90208 110.05896 51 ft 2 kts 68°
2026-05-09 15:29 -7.90210 110.05882 51 ft 2 kts 114°
2026-05-09 15:29 -7.90203 110.05869 51 ft 2 kts 113°
2026-05-09 15:30 -7.90198 110.05855 51 ft 2 kts 109°
2026-05-09 15:30 -7.90194 110.05845 51 ft 0 kts 109°
2026-05-09 15:32 -7.90195 110.05847 51 ft 2 kts 109°
2026-05-09 15:33 -7.90214 110.05897 50 ft 10 kts 110°
2026-05-09 15:33 -7.90241 110.05974 50 ft 12 kts 109°
2026-05-09 15:33 -7.90270 110.06055 49 ft 11 kts 109°
2026-05-09 15:33 -7.90296 110.06126 49 ft 9 kts 110°
2026-05-09 15:34 -7.90318 110.06185 49 ft 7 kts 111°
2026-05-09 15:34 -7.90335 110.06230 49 ft 6 kts 110°
2026-05-09 15:34 -7.90348 110.06267 50 ft 5 kts 110°
2026-05-09 15:34 -7.90364 110.06311 50 ft 7 kts 110°
2026-05-09 15:35 -7.90384 110.06365 50 ft 9 kts 110°
2026-05-09 15:35 -7.90414 110.06436 50 ft 12 kts 111°
2026-05-09 15:35 -7.90473 110.06496 49 ft 14 kts 179°
2026-05-09 15:35 -7.90582 110.06472 46 ft 16 kts 175°
2026-05-09 15:36 -7.90640 110.06551 45 ft 13 kts 112°
2026-05-09 15:36 -7.90671 110.06638 45 ft 12 kts 109°
2026-05-09 15:36 -7.90697 110.06710 45 ft 9 kts 110°
2026-05-09 15:36 -7.90715 110.06763 46 ft 6 kts 109°
2026-05-09 15:37 -7.90728 110.06800 46 ft 4 kts 109°
2026-05-09 15:37 -7.90736 110.06824 46 ft 3 kts 109°
2026-05-09 15:37 -7.90751 110.06865 46 ft 9 kts 110°
2026-05-09 15:37 -7.90780 110.06947 46 ft 14 kts 108°
2026-05-09 15:38 -7.90812 110.07042 46 ft 13 kts 112°
2026-05-09 15:38 -7.90850 110.07121 47 ft 11 kts 109°
2026-05-09 15:38 -7.90872 110.07190 47 ft 9 kts 106°
2026-05-09 15:38 -7.90874 110.07198 47 ft 0 kts 106°
2026-05-09 15:39 -7.90125 110.05932 51 ft 0 kts 20°
2026-05-09 15:46 -7.90136 110.05928 51 ft 2 kts 22°
2026-05-09 15:46 -7.90150 110.05922 51 ft 2 kts 22°
2026-05-09 15:46 -7.90164 110.05917 51 ft 2 kts 21°
2026-05-09 15:46 -7.90178 110.05911 51 ft 2 kts 21°
2026-05-09 15:47 -7.90191 110.05905 51 ft 2 kts 21°
2026-05-09 15:47 -7.90205 110.05900 51 ft 2 kts 50°
2026-05-09 15:47 -7.90210 110.05886 51 ft 2 kts 103°
2026-05-09 15:47 -7.90205 110.05872 51 ft 2 kts 115°
2026-05-09 15:48 -7.90199 110.05858 51 ft 2 kts 109°
2026-05-09 15:48 -7.90195 110.05845 51 ft 0 kts 109°
2026-05-09 15:48 -7.90194 110.05844 51 ft 0 kts 109°
2026-05-09 15:52 -7.90194 110.05845 51 ft 0 kts 109°
2026-05-09 15:52 -7.90201 110.05862 51 ft 4 kts 110°
2026-05-09 15:52 -7.90217 110.05906 50 ft 8 kts 110°
2026-05-09 15:53 -7.90241 110.05974 50 ft 12 kts 109°
2026-05-09 15:53 -7.90272 110.06064 49 ft 14 kts 110°
2026-05-09 15:53 -7.90304 110.06157 49 ft 13 kts 111°
2026-05-09 15:53 -7.90333 110.06235 49 ft 10 kts 109°
2026-05-09 15:54 -7.90354 110.06292 50 ft 7 kts 114°
2026-05-09 15:54 -7.90372 110.06331 51 ft 5 kts 113°
2026-05-09 15:54 -7.90389 110.06373 50 ft 7 kts 112°
2026-05-09 15:54 -7.90410 110.06426 50 ft 8 kts 111°
2026-05-09 15:55 -7.90439 110.06484 49 ft 9 kts 133°
2026-05-09 15:55 -7.90511 110.06487 48 ft 12 kts 197°
2026-05-09 15:55 -7.90590 110.06473 46 ft 10 kts 165°
2026-05-09 15:55 -7.90631 110.06530 45 ft 10 kts 114°
2026-05-09 15:56 -7.90658 110.06605 45 ft 11 kts 110°
2026-05-09 15:56 -7.90685 110.06682 45 ft 10 kts 109°
2026-05-09 15:56 -7.90706 110.06742 46 ft 7 kts 110°
2026-05-09 15:56 -7.90726 110.06795 46 ft 9 kts 110°
2026-05-09 15:57 -7.90756 110.06876 46 ft 16 kts 110°
2026-05-09 15:57 -7.90799 110.06995 46 ft 17 kts 109°
2026-05-09 15:57 -7.90840 110.07108 47 ft 16 kts 110°
2026-05-09 15:57 -7.90879 110.07208 47 ft 14 kts 124°
2026-05-09 15:58 -7.90953 110.07196 46 ft 8 kts 234°
2026-05-09 15:58 -7.90981 110.07147 45 ft 8 kts 242°
2026-05-09 15:58 -7.91010 110.07103 45 ft 6 kts 249°
2026-05-09 15:58 -7.91008 110.07062 45 ft 0 kts 287°
2026-05-09 16:00 -7.91007 110.07057 45 ft 5 kts 287°
2026-05-09 16:00 -7.90779 110.06420 44 ft 113 kts 290°
2026-05-09 16:00 -7.90439 110.05483 45 ft 170 kts 290°
2026-05-09 16:01 -7.90000 110.04244 346 ft 191 kts 290°
2026-05-09 16:01 -7.89540 110.02976 931 ft 198 kts 289°
2026-05-09 16:01 -7.89008 110.01654 1526 ft 209 kts 295°
2026-05-09 16:01 -7.88353 110.00332 2161 ft 215 kts 300°
2026-05-09 16:02 -7.87549 109.99028 2777 ft 228 kts 306°
2026-05-09 16:02 -7.85355 109.96438 4371 ft 259 kts 317°
2026-05-09 16:02 -7.84163 109.95130 5061 ft 256 kts 300°
2026-05-09 16:03 -7.83380 109.93460 5328 ft 272 kts 289°
2026-05-09 16:03 -7.82844 109.91598 5798 ft 279 kts 283°
2026-05-09 16:03 -7.82402 109.89686 6450 ft 280 kts 282°
2026-05-09 16:03 -7.81991 109.87770 7040 ft 283 kts 282°
2026-05-09 16:04 -7.81583 109.85819 7625 ft 286 kts 282°
2026-05-09 16:04 -7.81172 109.83840 8206 ft 288 kts 282°
2026-05-09 16:04 -7.80765 109.81879 8760 ft 290 kts 282°
2026-05-09 16:04 -7.80353 109.79884 9317 ft 292 kts 282°
2026-05-09 16:05 -7.79935 109.77874 9841 ft 294 kts 282°
2026-05-09 16:05 -7.79513 109.75838 10228 ft 302 kts 282°
2026-05-09 16:05 -7.79069 109.73693 10376 ft 319 kts 282°
2026-05-09 16:05 -7.78602 109.71439 10531 ft 334 kts 282°
2026-05-09 16:06 -7.78112 109.69085 10677 ft 348 kts 282°
2026-05-09 16:06 -7.77607 109.66649 10822 ft 362 kts 282°
2026-05-09 16:06 -7.77084 109.64132 11049 ft 371 kts 282°
2026-05-09 16:06 -7.76560 109.61602 11502 ft 373 kts 282°
2026-05-09 16:07 -7.76022 109.59020 11931 ft 376 kts 282°
2026-05-09 16:07 -7.75487 109.56448 12322 ft 379 kts 282°
2026-05-09 16:07 -7.74942 109.53821 12714 ft 382 kts 282°
2026-05-09 16:07 -7.74392 109.51180 13095 ft 384 kts 282°
2026-05-09 16:08 -7.73840 109.48529 13476 ft 387 kts 282°
2026-05-09 16:08 -7.73285 109.45869 13831 ft 390 kts 282°
2026-05-09 16:08 -7.72726 109.43179 14185 ft 392 kts 282°
2026-05-09 16:08 -7.72162 109.40469 14530 ft 395 kts 282°
2026-05-09 16:09 -7.71593 109.37738 14875 ft 397 kts 282°
2026-05-09 16:09 -7.71023 109.35004 15255 ft 398 kts 281°
2026-05-09 16:09 -7.70449 109.32250 15564 ft 401 kts 282°
2026-05-09 16:09 -7.69875 109.29501 15896 ft 403 kts 281°
2026-05-09 16:10 -7.69291 109.26704 16194 ft 406 kts 281°
2026-05-09 16:10 -7.68705 109.23892 16525 ft 408 kts 281°
2026-05-09 16:10 -7.68118 109.21075 16831 ft 410 kts 281°
2026-05-09 16:10 -7.67525 109.18235 17093 ft 413 kts 281°
2026-05-09 16:11 -7.66927 109.15372 17385 ft 415 kts 281°
2026-05-09 16:11 -7.66330 109.12513 17712 ft 417 kts 281°
2026-05-09 16:11 -7.65728 109.09634 18021 ft 418 kts 281°
2026-05-09 16:11 -7.65124 109.06743 18272 ft 421 kts 281°
2026-05-09 16:12 -7.64465 109.03841 18533 ft 423 kts 287°
2026-05-09 16:12 -7.63250 109.01113 18794 ft 425 kts 296°
2026-05-09 16:12 -7.61897 108.98420 19052 ft 427 kts 296°
2026-05-09 16:12 -7.60550 108.95725 19290 ft 430 kts 296°
2026-05-09 16:13 -7.59196 108.93008 19541 ft 432 kts 296°
2026-05-09 16:13 -7.57839 108.90285 19818 ft 433 kts 296°
2026-05-09 16:13 -7.56475 108.87550 20047 ft 435 kts 296°
2026-05-09 16:13 -7.55111 108.84815 20299 ft 436 kts 296°
2026-05-09 16:14 -7.53737 108.82060 20551 ft 437 kts 295°
2026-05-09 16:14 -7.52363 108.79305 20712 ft 441 kts 295°
2026-05-09 16:14 -7.50969 108.76510 20953 ft 442 kts 296°
2026-05-09 16:14 -7.49582 108.73733 21202 ft 443 kts 295°
2026-05-09 16:15 -7.48220 108.71003 21450 ft 444 kts 295°
2026-05-09 16:15 -7.46831 108.68220 21613 ft 446 kts 295°
2026-05-09 16:15 -7.45440 108.65434 21771 ft 449 kts 295°
2026-05-09 16:15 -7.44059 108.62670 21954 ft 451 kts 295°
2026-05-09 16:16 -7.42638 108.59825 22178 ft 452 kts 295°
2026-05-09 16:16 -7.41209 108.56964 22444 ft 452 kts 295°
2026-05-09 16:16 -7.39780 108.54103 22619 ft 453 kts 295°
2026-05-09 16:16 -7.38354 108.51251 22762 ft 456 kts 295°
2026-05-09 16:17 -7.36922 108.48384 23003 ft 456 kts 295°
2026-05-09 16:17 -7.35492 108.45523 23166 ft 458 kts 296°
2026-05-09 16:17 -7.34052 108.42642 23337 ft 459 kts 296°
2026-05-09 16:17 -7.32613 108.39768 23533 ft 460 kts 296°
2026-05-09 16:18 -7.31172 108.36888 23736 ft 461 kts 296°
2026-05-09 16:18 -7.29745 108.34037 23933 ft 462 kts 296°
2026-05-09 16:18 -7.28316 108.31180 24126 ft 463 kts 296°
2026-05-09 16:18 -7.26903 108.28357 24276 ft 465 kts 296°
2026-05-09 16:19 -7.25453 108.25462 24489 ft 465 kts 296°
2026-05-09 16:19 -7.24013 108.22583 24684 ft 466 kts 296°
2026-05-09 16:19 -7.22556 108.19678 24848 ft 467 kts 296°
2026-05-09 16:19 -7.21104 108.16778 25019 ft 468 kts 296°
2026-05-09 16:20 -7.19635 108.13844 25183 ft 469 kts 296°
2026-05-09 16:20 -7.18179 108.10936 25381 ft 470 kts 296°
2026-05-09 16:20 -7.16704 108.07995 25548 ft 471 kts 296°
2026-05-09 16:20 -7.15245 108.05086 25745 ft 472 kts 296°
2026-05-09 16:21 -7.13779 108.02164 25882 ft 473 kts 296°
2026-05-09 16:21 -7.12305 107.99221 26083 ft 473 kts 296°
2026-05-09 16:21 -7.10828 107.96277 26239 ft 475 kts 296°
2026-05-09 16:21 -7.09354 107.93338 26392 ft 476 kts 296°
2026-05-09 16:22 -7.07871 107.90386 26604 ft 476 kts 296°
2026-05-09 16:22 -7.06384 107.87422 26776 ft 476 kts 296°
2026-05-09 16:22 -7.04887 107.84441 26919 ft 478 kts 296°
2026-05-09 16:22 -7.03394 107.81465 27072 ft 479 kts 296°
2026-05-09 16:23 -7.01900 107.78488 27207 ft 480 kts 296°
2026-05-09 16:23 -7.00473 107.75649 27347 ft 481 kts 296°
2026-05-09 16:23 -6.98989 107.72694 27473 ft 482 kts 296°
2026-05-09 16:23 -6.97495 107.69717 27611 ft 483 kts 296°
2026-05-09 16:24 -6.95985 107.66713 27748 ft 484 kts 297°
2026-05-09 16:24 -6.94467 107.63696 27901 ft 484 kts 296°
2026-05-09 16:24 -6.93021 107.60820 28019 ft 485 kts 297°
2026-05-09 16:24 -6.91560 107.57913 28137 ft 486 kts 297°
2026-05-09 16:25 -6.90024 107.54858 28264 ft 486 kts 297°
2026-05-09 16:25 -6.88478 107.51805 28384 ft 487 kts 299°
2026-05-09 16:25 -6.86597 107.48953 28494 ft 487 kts 306°
2026-05-09 16:25 -6.84630 107.46169 28632 ft 487 kts 306°
2026-05-09 16:26 -6.82661 107.43378 28762 ft 487 kts 306°
2026-05-09 16:26 -6.80680 107.40569 28889 ft 488 kts 306°
2026-05-09 16:26 -6.78710 107.37772 29014 ft 488 kts 306°
2026-05-09 16:26 -6.76736 107.34975 29145 ft 488 kts 306°
2026-05-09 16:27 -6.74773 107.32194 29269 ft 489 kts 306°
2026-05-09 16:27 -6.72795 107.29389 29390 ft 489 kts 306°
2026-05-09 16:27 -6.70838 107.26614 29513 ft 489 kts 306°
2026-05-09 16:27 -6.68911 107.23883 29647 ft 489 kts 306°
2026-05-09 16:28 -6.66963 107.21126 29803 ft 488 kts 306°
2026-05-09 16:28 -6.65046 107.18409 29928 ft 488 kts 306°
2026-05-09 16:28 -6.63070 107.15611 30066 ft 488 kts 306°
2026-05-09 16:28 -6.61099 107.12820 30201 ft 488 kts 306°
2026-05-09 16:29 -6.59120 107.10019 30350 ft 487 kts 306°
2026-05-09 16:29 -6.57153 107.07233 30495 ft 487 kts 306°
2026-05-09 16:29 -6.55186 107.04450 30640 ft 486 kts 307°
2026-05-09 16:29 -6.53235 107.01687 30788 ft 486 kts 306°
2026-05-09 16:30 -6.51273 106.98911 30948 ft 485 kts 307°
2026-05-09 16:30 -6.49297 106.96118 31082 ft 485 kts 307°
2026-05-09 16:30 -6.47333 106.93338 31246 ft 484 kts 307°
2026-05-09 16:30 -6.45374 106.90569 31396 ft 483 kts 307°
2026-05-09 16:31 -6.43428 106.87815 31529 ft 483 kts 307°
2026-05-09 16:31 -6.41454 106.85026 31673 ft 483 kts 307°
2026-05-09 16:31 -6.39499 106.82262 31809 ft 483 kts 307°
2026-05-09 16:31 -6.37571 106.79536 31952 ft 482 kts 307°
2026-05-09 16:32 -6.35636 106.76801 32111 ft 481 kts 307°
2026-05-09 16:32 -6.34355 106.74991 32197 ft 481 kts 307°
2026-05-09 16:32 -6.31794 106.71372 32385 ft 480 kts 307°
2026-05-09 16:32 -6.29878 106.68666 32531 ft 480 kts 307°
2026-05-09 16:33 -6.27947 106.65940 32706 ft 479 kts 307°
2026-05-09 16:33 -6.26028 106.63231 32855 ft 478 kts 307°
2026-05-09 16:33 -6.24114 106.60527 33006 ft 478 kts 307°
2026-05-09 16:33 -6.22220 106.57853 33167 ft 477 kts 307°
2026-05-09 16:34 -6.20293 106.55134 33311 ft 477 kts 307°
2026-05-09 16:34 -6.18327 106.52447 33441 ft 475 kts 311°
2026-05-09 16:34 -6.16172 106.49918 33591 ft 474 kts 312°
2026-05-09 16:34 -6.14037 106.47397 33735 ft 474 kts 312°
2026-05-09 16:35 -6.11938 106.44923 33874 ft 474 kts 312°
2026-05-09 16:35 -6.09799 106.42398 33874 ft 476 kts 312°
2026-05-09 16:35 -6.05477 106.37299 33889 ft 480 kts 312°
2026-05-09 16:36 -5.96775 106.27037 33858 ft 485 kts 312°
2026-05-09 16:37 -5.92380 106.21855 33855 ft 486 kts 312°
2026-05-09 16:37 -5.88006 106.16701 33867 ft 486 kts 312°
2026-05-09 16:38 -5.83630 106.11547 33868 ft 482 kts 312°
2026-05-09 16:38 -5.79282 106.06423 33864 ft 481 kts 312°
2026-05-09 16:39 -5.74938 106.01308 33863 ft 482 kts 312°
2026-05-09 16:39 -5.70591 105.96190 33864 ft 483 kts 312°
2026-05-09 16:40 -5.66232 105.91060 33866 ft 482 kts 312°
2026-05-09 16:42 -5.48772 105.70522 33871 ft 483 kts 312°
2026-05-09 16:42 -5.44404 105.65388 33870 ft 483 kts 312°
2026-05-09 16:43 -5.40940 105.59606 33908 ft 488 kts 290°
2026-05-09 16:43 -5.38663 105.53149 33860 ft 490 kts 292°
2026-05-09 16:44 -5.36421 105.47135 33875 ft 489 kts 292°